Wind_Speed
11 11 11 11 12 12 12 11 11 10 10 9 10 10 10 10 10 11 12 12 12 12 12 13 14 15 16 17 18 19 19 19 19 20 21 22 23 23 25 25 26 27 28
9 9 10 10 11 11 11 11 10 9 8 9 9 9 9 9 9 10 11 11 12 12 13 13 13 15 16 17 17 18 18 18 19 20 20 21 22 23 24 25 25 26 27
8 8 9 9 10 9 9 9 9 8 9 9 9 9 9 9 10 10 10 11 11 12 12 13 14 15 15 16 17 17 18 19 19 20 20 21 22 23 24 24 24 25 26
8 8 8 8 9 8 8 8 8 8 8 9 9 9 10 10 10 10 11 12 12 12 13 13 14 15 15 16 16 17 17 18 19 20 21 22 22 23 24 24 24 25 25
7 7 8 8 8 7 7 7 7 8 9 9 9 9 9 10 10 11 12 12 12 13 13 14 15 15 15 16 16 16 17 18 20 20 21 21 22 23 23 23 24 24 25
8 8 7 6 7 7 7 7 7 8 8 9 9 9 10 11 12 12 13 13 13 13 14 15 15 15 15 15 16 18 19 20 21 21 21 22 23 23 23 23 23 24 24
8 6 5 6 6 6 7 7 8 8 9 9 10 10 11 12 12 13 14 13 14 14 15 15 15 15 16 16 17 18 19 20 21 21 21 22 23 23 23 23 23 24 24
7 6 6 6 6 7 8 8 8 8 9 9 10 11 11 12 13 13 13 13 14 14 15 16 16 16 16 17 18 18 19 19 19 19 20 21 22 22 22 23 23 23 24
6 6 6 7 7 8 9 9 9 8 9 9 10 11 12 12 12 12 12 12 13 14 15 15 15 15 16 17 18 18 18 19 18 18 20 20 21 21 21 22 22 22 23
7 6 7 7 8 9 10 10 9 9 10 10 12 12 12 12 11 12 12 13 13 14 14 14 15 15 15 17 18 18 18 18 18 19 20 20 21 21 21 21 21 22 23
7 8 8 9 9 9 10 10 11 11 11 12 12 12 12 11 12 12 13 13 13 13 13 14 14 15 16 17 18 18 19 19 18 19 19 20 20 21 21 21 21 22 22
8 8 9 10 10 10 10 11 12 12 13 13 13 12 12 11 12 13 13 13 14 14 14 14 14 15 16 16 17 18 18 18 18 18 19 19 20 21 20 20 21 21 22
9 9 10 10 11 11 11 12 13 13 13 13 13 13 12 12 12 13 13 14 14 14 14 14 14 15 15 16 16 17 18 18 18 17 17 18 19 20 20 20 21 21 21
10 10 10 11 11 11 12 13 13 13 12 12 12 12 12 13 13 13 13 14 14 13 13 13 14 15 16 16 16 17 17 17 17 17 17 18 20 21 21 21 21 21 21
10 10 10 10 10 11 12 12 12 12 11 11 11 12 13 13 13 14 14 13 13 13 13 13 14 15 15 16 16 16 16 17 17 18 18 19 19 20 21 20 21 21 21
11 11 10 11 11 12 12 12 12 11 11 11 11 12 13 13 14 14 13 13 13 12 13 14 14 15 15 15 16 16 16 16 17 18 19 19 19 20 20 21 21 21 21
11 11 11 11 12 12 12 13 12 11 11 11 12 12 13 13 14 14 14 13 13 13 13 14 15 15 15 15 15 16 16 17 18 18 19 19 19 20 21 21 21 21 21
12 12 12 11 12 12 12 12 12 12 12 12 12 13 14 15 15 14 14 14 14 15 15 14 14 15 15 14 15 16 16 17 18 18 19 19 19 20 21 21 21 21 21
12 12 12 11 11 12 12 12 12 12 12 13 13 14 15 15 15 15 15 15 15 15 16 15 14 14 14 13 14 16 17 16 17 19 20 20 20 21 21 21 21 20 20
12 12 12 11 11 12 12 12 12 13 13 13 14 15 15 15 15 15 15 15 16 16 16 16 15 15 15 14 15 16 17 17 17 19 20 20 20 21 21 21 20 20 19
13 13 12 12 12 12 12 12 13 13 13 14 14 15 15 15 15 15 16 16 16 16 16 17 16 16 17 17 17 17 17 17 18 19 20 21 21 21 21 21 21 20 20
13 13 13 12 12 12 12 13 13 13 14 14 15 15 15 15 15 15 15 15 15 16 16 17 17 17 18 18 18 18 18 19 19 20 20 20 20 20 20 20 20 20 19
14 14 14 14 13 13 13 13 13 13 14 15 15 15 15 15 16 16 16 16 17 17 17 18 17 17 17 18 19 19 19 19 20 20 20 19 19 19 20 20 20 19 19
16 16 16 15 15 14 13 13 13 13 14 15 16 16 16 16 16 16 17 17 17 17 17 17 18 17 18 18 19 18 19 19 19 18 19 19 18 19 19 19 19 18 18
18 17 17 16 16 15 15 15 15 15 15 15 16 17 17 17 17 17 17 17 17 18 17 18 18 18 18 19 19 19 19 18 18 18 18 18 18 18 18 18 17 17 17
19 18 17 17 17 16 16 16 16 16 16 16 17 18 18 17 17 17 17 17 18 18 18 18 18 18 18 19 19 19 18 18 17 17 17 17 17 17 17 17 17 17 17
Wind_Direction
288 290 292 294 292 291 295 296 294 293 292 292 289 283 281 281 282 284 285 282 279 278 277 276 277 279 279 278 281 284 285 286 288 286 286 286 286 287 288 288 288 287 286
294 293 292 293 295 296 293 292 293 289 287 291 289 282 282 282 284 286 286 283 282 281 280 281 283 284 284 281 283 285 286 288 291 290 289 290 289 291 292 290 289 288 287
302 299 297 297 299 298 293 293 292 289 287 291 286 282 285 285 284 286 284 286 286 284 285 286 285 286 286 286 287 286 288 289 291 292 291 292 293 293 295 294 293 292 291
308 307 307 307 305 302 299 299 298 298 295 294 292 287 287 288 291 290 291 291 289 286 286 288 287 287 288 290 288 287 289 290 292 293 293 293 295 296 297 297 296 295 294
309 311 311 310 314 310 304 302 299 299 301 299 295 291 290 292 295 293 294 294 293 290 289 291 293 292 291 293 292 291 291 293 295 294 295 295 296 296 296 297 298 298 296
306 304 308 316 315 314 309 307 307 305 306 304 304 298 294 294 294 293 293 295 294 291 291 293 294 295 295 295 296 295 294 295 296 296 297 298 297 297 298 298 300 299 297
308 308 307 312 312 317 321 320 316 309 307 310 311 306 300 296 293 293 294 294 294 294 292 293 294 296 296 297 299 299 299 299 298 298 298 299 299 299 300 301 301 301 300
315 311 305 312 319 323 323 320 317 316 313 314 313 310 308 302 297 296 297 296 296 296 294 293 292 294 297 298 301 303 302 304 304 304 303 302 302 303 304 303 303 302 301
319 318 314 314 316 319 319 317 318 318 320 321 319 315 312 307 303 301 301 301 299 298 296 295 294 297 298 299 302 305 306 306 305 307 307 305 304 306 306 306 305 305 303
312 313 315 316 315 315 315 314 316 317 317 317 317 315 315 312 308 305 302 303 304 303 300 299 299 300 301 304 306 308 310 311 310 308 308 308 306 309 309 309 308 308 306
305 309 312 312 312 314 316 316 316 315 314 315 316 315 314 311 309 307 305 306 307 308 307 305 303 303 303 306 308 309 311 313 312 311 310 311 310 312 311 311 311 311 311
305 308 311 312 311 313 316 317 315 313 313 315 316 316 311 308 308 309 310 310 309 308 307 306 305 304 304 305 308 309 310 311 312 313 313 314 315 315 314 314 313 313 314
305 308 311 311 310 309 311 314 315 314 313 314 313 312 309 306 305 306 310 313 314 312 311 311 309 307 307 309 312 315 316 316 317 318 318 318 318 320 319 320 317 314 314
307 307 310 311 310 311 312 314 317 317 314 313 312 311 309 306 304 303 308 315 317 315 315 314 312 311 311 313 315 317 318 320 322 323 322 320 320 322 321 321 320 319 318
306 307 310 312 311 312 315 318 320 320 317 314 314 315 312 310 308 307 310 315 319 316 313 313 313 313 313 314 315 317 320 323 323 323 323 323 323 324 325 323 323 322 321
305 306 307 309 309 310 314 316 316 317 315 314 315 316 316 315 314 312 310 309 315 316 314 316 315 313 311 312 314 317 319 321 322 323 325 326 326 325 325 325 325 324 324
303 304 305 306 308 312 314 316 316 316 315 313 313 313 315 316 318 314 308 307 311 315 315 318 319 316 313 312 313 314 316 318 321 324 326 327 328 328 327 325 325 325 324
300 301 302 304 307 310 311 312 313 312 312 313 314 313 313 315 316 315 313 311 310 313 316 317 320 320 318 315 314 314 315 317 320 323 325 326 327 328 328 326 325 325 324
296 297 296 297 303 307 310 311 312 314 314 315 315 314 314 316 316 315 312 311 311 311 314 315 315 318 318 316 317 318 318 317 320 323 326 327 327 327 328 329 328 327 326
293 294 294 295 298 303 308 310 310 312 313 315 318 320 320 319 318 317 315 312 313 313 312 313 312 313 316 316 317 322 322 321 322 325 327 329 328 327 327 328 329 328 328
292 294 293 291 291 295 301 307 309 313 317 320 321 322 323 321 319 317 316 314 313 314 315 313 311 311 312 313 315 319 320 320 322 324 325 328 329 329 329 329 330 330 330
289 293 295 297 299 300 302 307 308 311 315 319 321 322 322 321 321 320 318 316 314 315 317 316 314 313 312 313 314 317 317 317 319 322 324 327 330 331 332 331 331 331 331
281 286 288 292 296 298 297 300 305 310 313 317 318 321 321 321 321 322 322 321 318 317 317 318 318 317 317 317 317 317 316 318 321 323 325 328 330 332 333 333 332 332 332
277 281 284 287 288 290 293 296 299 304 309 315 319 320 322 322 323 324 324 325 323 320 319 319 319 319 320 320 321 320 320 321 321 322 324 326 329 331 332 333 334 333 333
273 276 280 283 285 288 291 293 295 299 303 309 314 316 317 318 319 320 322 323 324 324 322 321 322 322 322 323 324 323 322 322 322 322 323 324 326 328 329 332 334 335 335
270 273 277 279 282 285 288 291 294 297 301 304 308 311 313 315 316 317 319 320 320 322 321 321 322 323 325 325 326 327 326 327 327 326 325 326 328 328 329 330 331 332 333
Height
5797 5796 5795 5794 5792 5791 5789 5788 5787 5786 5785 5783 5782 5782 5781 5780 5780 5779 5778 5777 5776 5776 5775 5774 5774 5773 5772 5772 5771 5770 5768 5767 5765 5764 5762 5760 5758 5756 5754 5752 5749 5747 5745
5795 5793 5792 5791 5789 5788 5786 5785 5784 5783 5782 5780 5779 5779 5778 5777 5777 5776 5775 5774 5773 5772 5771 5770 5770 5769 5768 5767 5766 5764 5763 5761 5760 5758 5756 5753 5751 5749 5746 5744 5742 5739 5737
5792 5791 5789 5788 5786 5785 5784 5782 5781 5780 5779 5778 5777 5776 5775 5774 5773 5772 5771 5770 5769 5768 5767 5766 5765 5764 5763 5762 5760 5759 5757 5755 5753 5751 5749 5747 5745 5743 5740 5737 5734 5732 5729
5790 5788 5787 5785 5784 5782 5781 5780 5779 5777 5776 5775 5774 5773 5772 5771 5770 5769 5768 5766 5765 5764 5763 5762 5761 5760 5758 5757 5755 5753 5752 5750 5748 5746 5743 5741 5739 5736 5733 5730 5727 5724 5722
5788 5786 5785 5783 5782 5780 5779 5778 5776 5775 5774 5773 5772 5770 5769 5769 5767 5766 5764 5763 5761 5760 5759 5758 5756 5755 5753 5752 5750 5748 5746 5744 5742 5740 5737 5735 5732 5729 5727 5724 5720 5717 5714
5786 5784 5783 5781 5780 5779 5777 5776 5775 5773 5772 5770 5769 5768 5767 5766 5764 5763 5761 5759 5757 5756 5755 5753 5752 5751 5749 5747 5745 5743 5741 5738 5736 5733 5731 5728 5726 5723 5720 5717 5714 5711 5708
5783 5782 5781 5780 5778 5777 5775 5774 5773 5771 5770 5768 5766 5765 5764 5762 5761 5759 5757 5755 5753 5752 5750 5749 5747 5746 5744 5742 5740 5738 5735 5732 5730 5727 5724 5722 5719 5716 5713 5710 5706 5703 5700
5782 5780 5779 5778 5777 5775 5774 5772 5771 5769 5767 5765 5764 5762 5760 5758 5757 5755 5753 5751 5749 5748 5746 5744 5743 5741 5739 5737 5735 5733 5730 5727 5724 5721 5719 5716 5713 5710 5706 5703 5699 5696 5693
5780 5779 5778 5776 5775 5773 5772 5770 5768 5767 5765 5763 5761 5759 5757 5755 5753 5751 5750 5747 5745 5743 5741 5740 5738 5737 5735 5733 5730 5728 5725 5722 5718 5716 5713 5710 5707 5703 5700 5696 5693 5689 5686
5779 5777 5776 5774 5773 5771 5769 5768 5766 5764 5762 5760 5758 5756 5754 5752 5750 5748 5746 5744 5742 5740 5738 5736 5734 5732 5731 5728 5726 5723 5720 5717 5713 5711 5708 5704 5701 5697 5694 5691 5687 5683 5680
5777 5775 5774 5772 5770 5769 5767 5765 5763 5761 5759 5757 5755 5753 5751 5749 5747 5745 5742 5740 5738 5736 5734 5732 5730 5728 5726 5724 5721 5718 5715 5712 5709 5705 5702 5699 5695 5692 5689 5685 5682 5678 5674
5775 5773 5772 5770 5768 5766 5764 5762 5760 5758 5756 5754 5752 5750 5748 5746 5744 5742 5739 5737 5734 5732 5730 5728 5726 5724 5722 5719 5717 5714 5710 5707 5704 5700 5697 5694 5691 5687 5684 5680 5677 5673 5669
5772 5771 5769 5767 5765 5763 5761 5759 5757 5755 5753 5750 5748 5746 5744 5742 5740 5738 5736 5734 5731 5729 5727 5724 5722 5720 5718 5715 5712 5709 5706 5702 5699 5696 5693 5690 5687 5683 5679 5676 5672 5668 5664
5769 5768 5766 5764 5762 5760 5758 5756 5754 5751 5749 5747 5745 5743 5741 5739 5737 5735 5733 5730 5728 5726 5723 5721 5719 5716 5714 5711 5708 5705 5702 5699 5696 5692 5689 5686 5683 5679 5675 5671 5667 5663 5660
5767 5765 5763 5761 5760 5758 5756 5753 5751 5749 5746 5744 5742 5740 5738 5736 5733 5731 5729 5727 5724 5722 5720 5717 5715 5713 5710 5707 5704 5701 5698 5695 5692 5689 5686 5682 5678 5675 5671 5667 5663 5659 5655
5764 5762 5760 5759 5757 5755 5753 5750 5748 5746 5744 5742 5740 5737 5735 5732 5730 5727 5725 5723 5720 5718 5716 5714 5711 5708 5706 5703 5700 5697 5695 5692 5689 5685 5682 5678 5675 5671 5667 5663 5659 5655 5651
5760 5759 5757 5755 5754 5752 5750 5747 5745 5743 5741 5739 5737 5734 5732 5730 5727 5724 5722 5719 5717 5715 5713 5710 5707 5704 5702 5699 5696 5694 5691 5688 5685 5681 5678 5674 5671 5667 5663 5659 5655 5651 5647
5757 5755 5753 5752 5750 5748 5746 5744 5742 5740 5738 5736 5734 5731 5729 5726 5724 5721 5718 5716 5714 5711 5709 5706 5703 5700 5698 5695 5693 5690 5687 5684 5681 5678 5674 5670 5667 5663 5659 5655 5650 5646 5642
5753 5751 5750 5749 5747 5745 5743 5741 5739 5737 5734 5732 5730 5728 5725 5722 5720 5717 5714 5712 5709 5707 5705 5702 5699 5696 5693 5691 5688 5686 5683 5680 5677 5674 5670 5666 5663 5659 5655 5650 5646 5642 5639
5749 5748 5746 5745 5743 5742 5740 5738 5736 5734 5731 5729 5727 5724 5721 5718 5716 5714 5711 5708 5706 5703 5701 5698 5695 5692 5690 5687 5684 5681 5678 5675 5672 5669 5666 5662 5658 5655 5650 5647 5643 5639 5635
5745 5743 5742 5741 5739 5738 5736 5734 5732 5730 5728 5726 5724 5721 5718 5715 5712 5709 5707 5704 5702 5699 5697 5694 5691 5688 5686 5683 5680 5677 5674 5671 5668 5665 5662 5658 5654 5650 5646 5643 5639 5635 5631
5740 5739 5738 5737 5736 5734 5732 5731 5729 5727 5725 5723 5720 5717 5715 5712 5709 5706 5703 5701 5698 5695 5692 5690 5687 5684 5681 5678 5675 5673 5670 5667 5664 5661 5657 5654 5650 5646 5643 5639 5636 5632 5628
5735 5735 5734 5733 5732 5730 5729 5727 5725 5724 5722 5719 5717 5714 5711 5709 5706 5703 5700 5697 5694 5691 5688 5685 5683 5680 5677 5674 5671 5668 5665 5662 5659 5656 5653 5650 5646 5643 5640 5636 5633 5629 5626
5730 5730 5729 5728 5727 5726 5725 5723 5722 5720 5718 5716 5713 5711 5708 5705 5702 5699 5696 5693 5690 5687 5684 5682 5679 5676 5673 5670 5667 5664 5661 5658 5655 5652 5649 5646 5643 5640 5636 5633 5630 5626 5623
5724 5724 5724 5723 5722 5721 5720 5719 5717 5716 5714 5712 5710 5707 5704 5702 5699 5696 5693 5690 5687 5684 5681 5678 5675 5672 5669 5666 5663 5660 5657 5654 5651 5648 5645 5642 5639 5636 5633 5629 5626 5623 5620
5718 5718 5718 5718 5717 5717 5716 5714 5713 5711 5709 5707 5705 5703 5700 5697 5695 5692 5689 5686 5683 5680 5677 5674 5671 5668 5665 5662 5659 5656 5653 5650 5647 5644 5641 5638 5635 5632 5629 5626 5623 5620 5617